Regional Weather Roundup
Issued by NWS

Home | Current Version | Previous Version | Text Only | Print | Product List | Glossary On
Versions: 1 2 3 4 5 6 7 8 9 10 11 12 13 14 15 16 17 18 19 20 21 22 23 24 25 26 27 28 29 30 31 32 33 34 35 36 37 38 39 40 41 42 43 44 45 46 47 48 49 50
000
ASUS43 KFSD 261102
RWRSD

WEATHER ROUNDUP FOR SOUTH DAKOTA
NATIONAL WEATHER SERVICE SIOUX FALLS SD
600 AM CDT MON JUN 26 2017

NOTE: "FAIR" INDICATES FEW OR NO CLOUDS BELOW 12,000 FEET WITH NO
SIGNIFICANT WEATHER AND/OR OBSTRUCTIONS TO VISIBILITY.


SDZ001>005-009-010-012>017-261200-
NORTHWEST AND NORTH CENTRAL SOUTH DAKOTA

CITY           SKY/WX    TMP DP  RH WIND       PRES   REMARKS
BUFFALO          N/A     49  40  71 SE8       30.17S
FAITH            N/A     47  43  86 SE10      30.25R
MOBRIDGE       CLEAR     43  39  86 CALM      30.23R
$$

SDZ012>016-024>037-041>051-057-063-072>074-261200-
SOUTHWEST AND SOUTH CENTRAL SOUTH DAKOTA

CITY           SKY/WX    TMP DP  RH WIND       PRES   REMARKS
RAPID CTY ARPT CLEAR     46  36  68 W3        30.25S
PIERRE         CLEAR     45  43  93 NE8       30.22S
CUSTER         CLEAR     39  31  72 NW3       30.31S
ELLSWORTH AFB  PTCLDY    50  38  63 SW5       30.25S
PHILIP         CLEAR     42  39  89 N5        30.24R
PINE RIDGE     CLEAR     45  40  82 NE5       30.25R
SPEARFISH      FAIR      46  36  66 S5        30.24S
WINNER         FAIR      50  45  83 CALM      30.23R
$$

SDZ004>011-016>023-039-040-261200-
NORTHEAST SOUTH DAKOTA

CITY           SKY/WX    TMP DP  RH WIND       PRES   REMARKS
ABERDEEN       CLEAR     39  39 100 CALM      30.24R
WATERTOWN      CLEAR     44  42  93 CALM      30.22R
BROOKINGS      CLEAR     44  43  96 CALM      30.22R
SISSETON         N/A     41  39  93 NW3       30.21S
$$

SDZ017-020-022-023-036>040-048>070-261200-
SOUTHEAST SOUTH DAKOTA

CITY           SKY/WX    TMP DP  RH WIND       PRES   REMARKS
SIOUX FALLS    PTCLDY    49  49 100 CALM      30.21R
HURON          CLEAR     44  44 100 CALM      30.22R
CHAMBERLAIN    CLEAR     47  45  93 N3        30.22S
MITCHELL       CLEAR     48  48 100 NW5       30.22R
YANKTON        PTCLDY    53  50  89 CALM      30.20R
$$

ABBREVIATIONS USED IN REMARKS
   TC - TEMPERATURE IN CELSIUS
  WCI - WIND CHILL INDEX
   HX - HEAT INDEX
  VSB - VISIBILITY





USA.gov is the U.S. government's official web portal to all federal, state and local government web resources and services.